TimeCDT,TemperatureF,Dew PointF,Humidity,Sea Level PressureIn,VisibilityMPH,Wind Direction,Wind SpeedMPH,Gust SpeedMPH,PrecipitationIn,Events,Conditions,WindDirDegrees,DateUTC
12:15 AM,69.8,66.2,88,30.08,10.0,North,4.6,-,N/A,,Clear,10,2013-08-19 05:15:00
12:35 AM,68.0,66.2,94,30.08,10.0,NNE,4.6,-,N/A,,Clear,20,2013-08-19 05:35:00
12:55 AM,68.0,66.2,94,30.08,10.0,NNE,5.8,-,N/A,,Clear,30,2013-08-19 05:55:00
1:15 AM,68.0,66.2,94,30.08,10.0,NE,3.5,-,N/A,,Clear,40,2013-08-19 06:15:00
1:35 AM,68.0,66.2,94,30.08,10.0,Calm,Calm,-,N/A,,Clear,0,2013-08-19 06:35:00
1:55 AM,68.0,66.2,94,30.08,7.0,Calm,Calm,-,N/A,,Clear,0,2013-08-19 06:55:00
2:15 AM,68.0,66.2,94,30.08,7.0,Calm,Calm,-,N/A,,Clear,0,2013-08-19 07:15:00
2:35 AM,68.0,66.2,94,30.08,7.0,Calm,Calm,-,N/A,,Clear,0,2013-08-19 07:35:00
2:55 AM,68.0,64.4,88,30.08,5.0,Calm,Calm,-,N/A,,Clear,0,2013-08-19 07:55:00
3:15 AM,68.0,66.2,94,30.08,7.0,Calm,Calm,-,N/A,,Clear,0,2013-08-19 08:15:00
3:35 AM,66.2,64.4,94,30.08,5.0,Calm,Calm,-,N/A,,Clear,0,2013-08-19 08:35:00
3:55 AM,66.2,64.4,94,30.08,7.0,Calm,Calm,-,N/A,,Clear,0,2013-08-19 08:55:00
4:15 AM,64.4,62.6,94,30.07,0.8,North,3.5,-,N/A,,Mist,350,2013-08-19 09:15:00
4:35 AM,64.4,64.4,100,30.08,2.0,North,3.5,-,N/A,,Clear,350,2013-08-19 09:35:00
4:55 AM,64.4,64.4,100,30.08,1.0,North,3.5,-,N/A,,Mist,360,2013-08-19 09:55:00
5:15 AM,64.4,64.4,100,30.08,0.5,NNW,3.5,-,N/A,Fog,Fog,330,2013-08-19 10:15:00
5:35 AM,64.4,62.6,94,30.08,0.5,North,3.5,-,N/A,Fog,Fog,360,2013-08-19 10:35:00
5:55 AM,64.4,62.6,94,30.08,1.8,North,3.5,-,N/A,,Mist,350,2013-08-19 10:55:00
6:15 AM,64.4,64.4,100,30.09,0.2,North,3.5,-,N/A,Fog,Fog,350,2013-08-19 11:15:00
6:35 AM,64.4,64.4,100,30.09,0.5,Calm,Calm,-,N/A,Fog,Fog,0,2013-08-19 11:35:00
6:55 AM,64.4,64.4,100,30.09,0.2,Calm,Calm,-,N/A,Fog,Fog,0,2013-08-19 11:55:00
7:15 AM,66.2,64.4,94,30.09,0.2,Calm,Calm,-,N/A,Fog,Fog,0,2013-08-19 12:15:00
7:35 AM,68.0,66.2,94,30.09,0.2,Calm,Calm,-,N/A,Fog,Fog,0,2013-08-19 12:35:00
7:55 AM,68.0,66.2,94,30.10,0.2,Calm,Calm,-,N/A,Fog,Fog,0,2013-08-19 12:55:00
8:15 AM,69.8,68.0,94,30.10,1.8,Calm,Calm,-,N/A,,Overcast,0,2013-08-19 13:15:00
8:35 AM,69.8,69.8,100,30.10,10.0,NNE,3.5,-,N/A,,Scattered Clouds,20,2013-08-19 13:35:00
8:55 AM,71.6,69.8,94,30.10,10.0,Calm,Calm,-,N/A,,Scattered Clouds,0,2013-08-19 13:55:00
9:15 AM,71.6,71.6,100,30.11,10.0,NE,3.5,-,N/A,,Mostly Cloudy,50,2013-08-19 14:15:00
9:35 AM,73.4,69.8,88,30.11,10.0,Calm,Calm,-,N/A,,Scattered Clouds,0,2013-08-19 14:35:00
9:55 AM,73.4,69.8,88,30.11,10.0,NE,3.5,-,N/A,,Clear,50,2013-08-19 14:55:00
10:15 AM,77.0,69.8,78,30.11,10.0,ENE,4.6,-,N/A,,Scattered Clouds,70,2013-08-19 15:15:00
10:35 AM,77.0,68.0,74,30.11,10.0,NE,3.5,-,N/A,,Scattered Clouds,40,2013-08-19 15:35:00
10:55 AM,77.0,69.8,78,30.11,10.0,NNE,3.5,-,N/A,,Scattered Clouds,30,2013-08-19 15:55:00
11:15 AM,78.8,68.0,69,30.11,10.0,Calm,Calm,-,N/A,,Scattered Clouds,0,2013-08-19 16:15:00
11:35 AM,80.6,69.8,70,30.10,10.0,NE,4.6,-,N/A,,Clear,40,2013-08-19 16:35:00
11:55 AM,80.6,68.0,65,30.10,10.0,NE,3.5,-,N/A,,Scattered Clouds,40,2013-08-19 16:55:00
12:15 PM,80.6,68.0,65,30.10,10.0,ENE,6.9,-,N/A,,Mostly Cloudy,60,2013-08-19 17:15:00
12:35 PM,82.4,68.0,62,30.08,10.0,NE,5.8,-,N/A,,Scattered Clouds,40,2013-08-19 17:35:00
12:55 PM,82.4,68.0,62,30.08,10.0,NE,6.9,-,N/A,,Clear,50,2013-08-19 17:55:00
1:15 PM,82.4,68.0,62,30.08,10.0,Calm,Calm,-,N/A,,Clear,0,2013-08-19 18:15:00
1:35 PM,82.4,66.2,58,30.07,10.0,ENE,3.5,-,N/A,,Scattered Clouds,60,2013-08-19 18:35:00
1:55 PM,82.4,66.2,58,30.07,10.0,North,4.6,-,N/A,,Scattered Clouds,360,2013-08-19 18:55:00
2:15 PM,84.2,66.2,55,30.06,10.0,NE,4.6,-,N/A,,Clear,40,2013-08-19 19:15:00
2:35 PM,84.2,68.0,58,30.06,10.0,Calm,Calm,-,N/A,,Clear,0,2013-08-19 19:35:00
2:55 PM,84.2,68.0,58,30.05,10.0,North,5.8,-,N/A,,Scattered Clouds,350,2013-08-19 19:55:00
3:15 PM,86.0,68.0,55,30.04,10.0,North,5.8,-,N/A,,Clear,10,2013-08-19 20:15:00
3:35 PM,84.2,66.2,55,30.03,10.0,North,3.5,-,N/A,,Clear,350,2013-08-19 20:35:00
3:55 PM,86.0,66.2,51,30.03,10.0,North,6.9,-,N/A,,Clear,350,2013-08-19 20:55:00
4:15 PM,82.4,64.4,54,30.03,10.0,North,3.5,-,N/A,,Clear,10,2013-08-19 21:15:00
4:35 PM,86.0,66.2,51,30.02,10.0,NNW,6.9,-,N/A,,Clear,340,2013-08-19 21:35:00
4:55 PM,86.0,64.4,48,30.02,10.0,North,5.8,-,N/A,,Clear,360,2013-08-19 21:55:00
5:15 PM,86.0,68.0,55,30.01,10.0,NNE,9.2,-,N/A,,Clear,20,2013-08-19 22:15:00
5:35 PM,86.0,66.2,51,30.01,10.0,North,8.1,-,N/A,,Clear,360,2013-08-19 22:35:00
5:55 PM,84.2,66.2,55,30.02,10.0,North,6.9,-,N/A,,Clear,360,2013-08-19 22:55:00
6:15 PM,84.2,64.4,51,30.01,10.0,North,6.9,-,N/A,,Clear,350,2013-08-19 23:15:00
6:35 PM,82.4,66.2,58,30.01,10.0,North,5.8,-,N/A,,Clear,360,2013-08-19 23:35:00
6:55 PM,82.4,68.0,62,30.01,10.0,North,4.6,-,N/A,,Clear,360,2013-08-19 23:55:00
7:15 PM,80.6,68.0,65,30.02,10.0,North,4.6,-,N/A,,Clear,360,2013-08-20 00:15:00
7:35 PM,78.8,68.0,69,30.02,10.0,North,4.6,-,N/A,,Clear,360,2013-08-20 00:35:00
7:55 PM,77.0,68.0,74,30.03,10.0,North,4.6,-,N/A,,Clear,360,2013-08-20 00:55:00
8:15 PM,77.0,68.0,74,30.03,10.0,North,4.6,-,N/A,,Clear,360,2013-08-20 01:15:00
8:35 PM,75.2,68.0,78,30.03,10.0,North,4.6,-,N/A,,Clear,350,2013-08-20 01:35:00
8:55 PM,73.4,68.0,83,30.03,10.0,North,5.8,-,N/A,,Clear,360,2013-08-20 01:55:00
9:15 PM,73.4,68.0,83,30.04,10.0,North,4.6,-,N/A,,Clear,360,2013-08-20 02:15:00
9:35 PM,73.4,68.0,83,30.04,10.0,North,4.6,-,N/A,,Clear,10,2013-08-20 02:35:00
9:55 PM,73.4,68.0,83,30.05,10.0,Calm,Calm,-,N/A,,Clear,0,2013-08-20 02:55:00
10:15 PM,73.4,69.8,88,30.05,10.0,Calm,Calm,-,N/A,,Clear,0,2013-08-20 03:15:00
10:35 PM,71.6,68.0,88,30.05,10.0,Calm,Calm,-,N/A,,Clear,0,2013-08-20 03:35:00
10:55 PM,71.6,68.0,88,30.05,10.0,NNE,3.5,-,N/A,,Clear,30,2013-08-20 03:55:00
11:15 PM,71.6,68.0,88,30.05,10.0,NE,3.5,-,N/A,,Clear,40,2013-08-20 04:15:00
11:35 PM,71.6,68.0,88,30.05,10.0,Calm,Calm,-,N/A,,Clear,0,2013-08-20 04:35:00
11:55 PM,69.8,68.0,94,30.05,10.0,North,4.6,-,N/A,,Clear,360,2013-08-20 04:55:00